Regional Weather Roundup
Issued by NWS

Home | Current Version | Previous Version | Text Only | Print | Product List | Glossary On
Versions: 1 2 3 4 5 6 7 8 9 10 11 12 13 14 15 16 17 18 19 20 21 22 23 24 25 26 27 28 29 30 31 32 33 34 35 36 37 38 39 40 41 42 43 44 45 46 47 48 49 50
000
ASUS45 KSLC 240510
RWRUT

UTAH REGIONAL WEATHER ROUNDUP
NATIONAL WEATHER SERVICE SALT LAKE CITY UT
1100 PM MDT MON APR 23 2018

UTZ001>011-023>025-240600-

NORTHERN UTAH

CITY           SKY/WX    TMP DP  RH WIND       PRES   REMARKS
BRIGHAM CITY   CLEAR     53  26  35 W7        30.23R
HILL AFB       CLEAR     52  23  31 NE10      30.20S
LOGAN          CLEAR     42  34  73 N7        30.25R
OGDEN          CLEAR     51  27  39 NE7       30.20R
SALT LAKE CITY CLEAR     52  35  52 N7        30.18R
TOOELE VALLEY  CLEAR     39  30  70 S5        30.21R
WENDOVER       CLEAR     55  19  24 N16       30.22R
HEBER CITY       N/A     43  14  31 E5        30.21S
WEST JORDAN    CLEAR     49  32  50 W10       30.20S

$$

UTZ011>015-024>027-240600-

CENTRAL/NORTHEAST UTAH

CITY           SKY/WX    TMP DP  RH WIND       PRES   REMARKS
PROVO AIRPORT  CLEAR     52  25  35 N10       30.18R
MOAB/CANYONLAN CLOUDY    62  19  19 NW8       30.04R
DELTA          CLEAR     52  19  28 NE14      30.15R
PRICE          MOCLDY    54  21  27 NW10      30.15S
RICHFIELD      CLEAR     55  27  33 CALM      30.16
ROOSEVELT      CLOUDY    54  10  17 W12       30.17R
VERNAL         CLOUDY    55  20  25 NE15G22   30.17R

$$

UTZ013>016-019>022-027-240600-

SOUTHERN UTAH

CITY           SKY/WX    TMP DP  RH WIND       PRES   REMARKS
BRYCE CANYON   CLEAR     47  28  47 N5        30.23R
CEDAR CITY     CLEAR     49  37  63 W3        30.12R
MILFORD        CLEAR     56  28  34 MISG      30.13R
ST GEORGE      CLEAR     71  22  15 NE6       29.95R
HANKSVILLE     CLOUDY    68  27  21 N7        30.07S
KANAB          CLEAR     63  19  19 CALM      30.11
BLANDING         N/A     55  16  21 NE8       30.15R

$$

REGIONAL REPORTS     COLORADO/ARIZONA

CITY           SKY/WX    TMP DP  RH WIND       PRES   REMARKS
CRAIG, CO      CLOUDY    45  33  63 VRB3      30.21R
GRAND JUNCTION CLOUDY    65  29  25 CALM      30.07R
RIFLE, CO      CLOUDY    62  25  24 SW13      30.14R
MONTROSE, CO   CLOUDY    63  26  24 NW20G28   30.14R
CORTEZ, CO     PTCLDY    49  16  26 E9        30.09S
COLORADO CITY    N/A     48  27  43 CALM      30.11R
PAGE, AZ       PTCLDY    75  19  12 W7        30.01R
GRAND CANYON   CLEAR     42  14  32 SW3       30.20R
KINGMAN, AZ    CLEAR     70  21  15 S12       30.02R
FLAGSTAFF, AZ  CLEAR     48  17  29 CALM      30.23R

$$

REGIONAL REPORTS    NEVADA/IDAHO/WYOMING

CITY           SKY/WX    TMP DP  RH WIND       PRES   REMARKS
LAS VEGAS, NV  MOCLDY    82  22  11 SW6       29.89R
ELY, NY        CLEAR     48  14  25 N10       30.20R
ELKO, NV       CLEAR     49  19  30 E10G20    30.23R
POCATELLO, ID  CLEAR     39  34  82 NE6       30.31R WCI  35
BURLEY, ID     CLEAR     42  34  73 N7        30.28R
FORT BRIDGER,    N/A     38  22  53 NW6       30.30S WCI  33
EVANSTON, WY   CLEAR     37  25  61 N12       30.27S WCI  29
ROCK SPRINGS,  MOCLDY    32  25  75 NE16G28   30.32R WCI  21
KEMMERER, WY   CLEAR     34  23  64 NW7       30.28S WCI  28

$$



USA.gov is the U.S. government's official web portal to all federal, state and local government web resources and services.